Weather History for Massena, NY

Change the Weather History Date:

Tuesday, October 15, 2013

  Actual Average Record
Temperature  
Mean Temperature 52 °F 46 °F  
Max Temperature 64 °F 57 °F 80 °F (1956)
Min Temperature 40 °F 37 °F 21 °F (1980)
Degree Days  
Heating Degree Days 13 19  
Month to date heating degree days 136 239  
Since 1 July heating degree days 437 539  
Cooling Degree Days 0 0  
Month to date cooling degree days 0 0  
Year to date cooling degree days 418 361  
Growing Degree Days 3 (Base 50)    
Moisture  
Dew Point 46 °F    
Average Humidity 80    
Maximum Humidity 100    
Minimum Humidity 60    
Precipitation  
Precipitation 0.00 in 0.10 in 1.90 in (2003)
Month to date precipitation 1.15 1.65  
Year to date precipitation 29.71 27.84  
Sea Level Pressure  
Sea Level Pressure 30.24 in    
Wind  
Wind Speed 1 mph (ESE)    
Max Wind Speed 9 mph    
Max Gust Speed 10 mph    
Visibility 5 miles    
Events Fog    
T = Trace of Precipitation, MM = Missing Value Source: NWS Daily Summary

Daily Weather History Graph

Daily Weather History Graph

Search for Another Location

Airport:

Trip Planner

Search our weather history database for the weather conditions in past years. The results will help you decide how hot, cold, wet, or windy it might be!

Date:

Astronomy

Oct. 15, 2013 Rise Set
Actual Time 7:15 AM EDT 6:14 PM EDT
Civil Twilight 6:45 AM EDT 6:43 PM EDT
Nautical Twilight 6:11 AM EDT 7:17 PM EDT
Astronomical Twilight 5:37 AM EDT 7:51 PM EDT
Moon 4:24 PM EDT (10/15) 3:26 AM EDT (10/15)
Length of Visible Light 11h 57m
Length of Day
10h 58m
Waxing Gibbous, 87% of the Moon is Illuminated
Oct 15
Waxing Gibbous
Oct 18
Full
Oct 26
Last Quarter
Nov 3
New
Nov 10
First Quarter

Hourly Weather History & Observations

Time (EDT) Temp. Windchill Dew Point Humidity Pressure Visibility Wind Dir Wind Speed Gust Speed Precip Events Conditions
12:05 AM 44.6 °F 43.1 °F 44.6 °F 100% 30.30 in 0.5 mi SW 3.5 mph - N/A Fog Fog
12:32 AM 44.6 °F - 44.6 °F 100% 30.29 in 0.5 mi Calm Calm - N/A Fog Fog
12:45 AM 46.4 °F - 44.6 °F 93% 30.30 in 1.8 mi Calm Calm - N/A   Clear
12:53 AM 46.0 °F - 45.0 °F 96% 30.30 in 1.2 mi Calm Calm - N/A   Clear
1:06 AM 44.6 °F 43.1 °F 44.6 °F 100% 30.29 in 2.5 mi SW 3.5 mph - N/A   Clear
1:13 AM 46.4 °F - 44.6 °F 93% 30.30 in 3.0 mi Calm Calm - N/A   Partly Cloudy
1:16 AM 46.4 °F - 44.6 °F 93% 30.29 in 1.8 mi Calm Calm - N/A   Scattered Clouds
1:19 AM 46.4 °F 45.2 °F 44.6 °F 93% 30.29 in 0.8 mi South 3.5 mph - N/A   Scattered Clouds
1:29 AM 44.6 °F 43.1 °F 44.6 °F 100% 30.29 in 1.5 mi SSW 3.5 mph - N/A   Mostly Cloudy
1:41 AM 46.4 °F 45.2 °F 44.6 °F 93% 30.29 in 3.0 mi SW 3.5 mph - N/A   Overcast
1:53 AM 46.9 °F - 46.0 °F 97% 30.30 in 5.0 mi Calm Calm - N/A   Overcast
2:41 AM 46.4 °F - 44.6 °F 93% 30.28 in 1.8 mi Calm Calm - N/A   Clear
2:53 AM 46.0 °F - 45.0 °F 96% 30.30 in 2.0 mi Calm Calm - N/A   Clear
2:58 AM 44.6 °F 43.1 °F 42.8 °F 93% 30.28 in 1.2 mi South 3.5 mph - N/A   Clear
3:13 AM 42.8 °F - 42.8 °F 100% 30.28 in 0.5 mi Calm Calm - N/A Fog Fog
3:41 AM 42.8 °F - 42.8 °F 100% 30.27 in 0.2 mi Calm Calm - N/A Fog Fog
3:53 AM 42.1 °F - 41.0 °F 96% 30.28 in 0.2 mi Calm Calm - N/A Fog Fog
4:53 AM 42.1 °F - 39.9 °F 92% 30.29 in 0.2 mi Calm Calm - N/A Fog Fog
5:35 AM 42.8 °F - 41.0 °F 93% 30.28 in 0.2 mi Calm Calm - N/A Fog Fog
5:53 AM 43.0 °F - 43.0 °F 100% 30.30 in 1.5 mi Calm Calm - N/A   Overcast
6:01 AM 44.6 °F - 42.8 °F 93% 30.28 in 2.5 mi Calm Calm - N/A   Overcast
6:17 AM 44.6 °F - 42.8 °F 93% 30.28 in 5.0 mi Calm Calm - N/A   Overcast
6:53 AM 45.0 °F - 44.1 °F 97% 30.28 in 7.0 mi Calm Calm - N/A   Overcast
7:20 AM 44.6 °F - 44.6 °F 100% 30.28 in 7.0 mi Calm Calm - N/A   Overcast
7:53 AM 46.0 °F - 45.0 °F 96% 30.30 in 10.0 mi Calm Calm - N/A   Overcast
8:07 AM 46.4 °F - 44.6 °F 93% 30.28 in 10.0 mi Calm Calm - N/A   Overcast
8:53 AM 46.9 °F - 45.0 °F 93% 30.30 in 10.0 mi Calm Calm - N/A   Overcast
9:53 AM 53.1 °F - 48.0 °F 83% 30.28 in 10.0 mi Calm Calm - N/A   Scattered Clouds
10:53 AM 57.0 °F - 51.1 °F 81% 30.26 in 10.0 mi NNE 4.6 mph - N/A   Partly Cloudy
11:53 AM 60.1 °F - 51.1 °F 72% 30.24 in 10.0 mi North 3.5 mph - N/A   Mostly Cloudy
12:53 PM 63.0 °F - 51.1 °F 65% 30.21 in 10.0 mi Calm Calm - N/A   Clear
1:53 PM 63.0 °F - 48.9 °F 60% 30.19 in 10.0 mi Calm Calm - N/A   Overcast
2:53 PM 62.1 °F - 51.1 °F 67% 30.17 in 10.0 mi NNE 4.6 mph - N/A   Overcast
3:53 PM 63.0 °F - 50.0 °F 63% 30.15 in 10.0 mi NE 4.6 mph - N/A   Mostly Cloudy
4:53 PM 64.0 °F - 50.0 °F 60% 30.13 in 10.0 mi Variable 3.5 mph - N/A   Scattered Clouds
5:53 PM 57.0 °F - 51.1 °F 81% 30.13 in 10.0 mi ENE 3.5 mph - N/A   Clear
6:53 PM 55.0 °F - 51.1 °F 86% 30.12 in 9.0 mi Calm Calm - N/A   Clear
7:53 PM 53.1 °F - 50.0 °F 89% 30.11 in 7.0 mi Calm Calm - N/A   Clear
8:53 PM 50.0 °F - 48.9 °F 96% 30.10 in 4.0 mi Calm Calm - N/A   Scattered Clouds
9:53 PM 50.0 °F - 48.0 °F 93% 30.09 in 6.0 mi Calm Calm - N/A   Mostly Cloudy
10:53 PM 51.1 °F - 48.9 °F 92% 30.06 in 5.0 mi NE 4.6 mph - N/A   Clear
11:53 PM 51.1 °F - 48.9 °F 92% 30.03 in 4.0 mi Calm Calm - N/A   Scattered Clouds